{"data":{"norad_id":62830,"intl_designator":"2025-019B","name":"STARLINK-11480 [DTC]","alt_names":[],"object_type":"PAYLOAD","status":"ACTIVE","operator":null,"country":"US","launch_date":"2025-01-27","launch_site_code":"AFETR","launch_vehicle":null,"mission":null,"orbit_class":"UNKNOWN","rcs_meters":null,"size_class":null,"mass_kg":null,"dimensions":null,"purposes":["comms"],"wikipedia_slug":null,"has_3d_model":false,"image_url":null,"decayed_at":null,"tle_current":{"epoch":"2026-09-21T05:26:44.265408Z","epoch_age_seconds":105412,"freshness":"FRESH","line1":"1 62830U 25019B   26264.22690122  .00169336  00000+0  12945-2 0  9990","line2":"2 62830  43.0008 207.3531 0001647 270.7299  89.3380 15.70876776 94638","mean_motion":15.70876776,"eccentricity":0.0001647,"inclination_deg":43.0008,"raan_deg":207.3531,"arg_perigee_deg":270.7299,"mean_anomaly_deg":89.338,"bstar":0.0012945,"rev_number":9463,"period_min":91.668552365179,"perigee_km":355.28077433968,"apogee_km":357.49912751731,"semimajor_km":6734.5269509285,"source":"CELESTRAK","updated_at":"2026-09-22T09:00:49.671079Z"}}}